Location: Gallinara
(44.0333°N, 8.2333°E)
Time: 16:07:40
(UTC+00:00)

BREEZE-M DEB (TANK) - Pass Details

Date: 25 September 2020
Orbit: 306 x 13931 km, 46.1° (Epoch: 29 October)

Event Time Altitude Azimuth Distance (km) Brightness Sun altitude
Exits shadow 03:57:59 20° 253° (WSW) 2,484 5.0 -15.1°
Maximum altitude 04:02:32 89° 332° (NNW) 662 2.6 -14.3°
Drops below altitude 10° 04:05:25 10° 74° (ENE) 1,513 6.0 -13.8°
Sets 04:06:46 0° 74° (ENE) 2,177 7.4 -13.5°
